Home > Weather > Xi'an > Past weeks

Flag for China Past Weather in Xi'an, Shaanxi, China — Yesterday and Last 2 Weeks

Now
86 °F

Thunderstorms. Passing clouds.


Feels Like: 97 °F
Forecast: 75 / 82 °F
Wind: 10 mph from East

Location: Xian/Xianyang

Current Time: Aug 25, 2016 at 12:19:13 AM

Latest Report: Aug 24, 2016 at 11:00 PM


Visibility: 4 mi

Pressure: 29.68 "Hg

Humidity: 75%

Dew Point: 77 °F

Location of Xi'anLocation

Past Weather in Xi'an — Graph

°F

Xi'an Temperature Yesterday

Maximum temperature yesterday: 99 °F (at 3:00 PM)
Minimum temperature yesterday: 79 °F (at 6:00 AM)
Average temperature yesterday: 88 °F

High & Low Weather Summary for the Past Weeks

 TemperatureHumidityPressure
High102 °F (Aug 13, 3:00 PM)94% (Aug 12, 5:00 AM)29.86 "Hg (Aug 12, 5:00 AM)
Low77 °F (Aug 10, 1:00 AM)39% (Aug 12, 4:00 PM)29.42 "Hg (Aug 17, 5:00 PM)
Average87 °F66%29.67 "Hg
* Reported Aug 9 11:00 PM — Aug 24 11:00 PM, Xi'an, Weather by CustomWeather, © 2016

Note: Actual official high and low records may vary slightly from our data, if they occured in-between our weather recording intervals... More about our weather records

Advertising

Xi'an Weather History for the Previous 24 Hours

Scroll right to see more
 ConditionsComfort  
Time TempWeatherWind HumidityBarometerVisibility
11:00 PM
Wed, Aug 24
86 °FThunderstorms. Passing clouds.10 mph75%29.68 "Hg4 mi
10:00 PM88 °FPassing clouds.3 mph62%29.68 "Hg5 mi
9:00 PM88 °FClear.3 mph66%29.68 "Hg5 mi
8:00 PM88 °FClear.6 mph66%29.65 "Hg5 mi
7:00 PM91 °FPassing clouds.6 mph59%29.62 "HgN/A
6:00 PM93 °FSunny.6 mph56%29.62 "Hg10 mi
5:00 PM99 °FSunny.1 mph44%29.59 "Hg10 mi
4:00 PM99 °FSunny.3 mph44%29.59 "Hg10 mi
3:00 PM99 °FClear.6 mph44%29.62 "Hg5 mi
2:00 PM97 °FClear.3 mph47%29.65 "Hg5 mi
1:00 PM97 °FClear.3 mph47%29.68 "Hg4 mi
12:00 PM95 °FHaze.3 mph56%29.71 "Hg3 mi
11:00 AM91 °FHaze.6 mph63%29.71 "Hg3 mi
10:00 AM88 °FHaze.6 mph70%29.74 "Hg2 mi
9:00 AM86 °FHaze.8 mph75%29.74 "Hg2 mi
8:00 AM81 °FFog.6 mph84%29.74 "Hg2 mi
7:00 AM79 °FFog.6 mph89%29.74 "Hg2 mi
6:00 AM79 °FFog.6 mph89%29.71 "Hg3 mi
5:00 AM81 °FClear.6 mph84%29.71 "Hg4 mi
4:00 AM82 °FClear.6 mph79%29.71 "Hg5 mi
3:00 AM82 °FClear.6 mph79%29.68 "Hg5 mi
2:00 AM84 °FClear.6 mph74%29.68 "Hg5 mi
1:00 AM84 °FClear.3 mph70%29.68 "Hg10 mi
12:00 AM84 °FClear.3 mph70%29.71 "Hg10 mi
Weather by CustomWeather, © 2016

See weather overviewHow to use our weather pages